ONEWEB-0086, 45456

Orbit data source: Space-Track

ONEWEB-0086, 45456 is a payload satellite owned by One Web (UK) in LEO that was launched on Sat, 21 Mar 2020 UTC via a SOYUZ-2-1B launch vehicle from the Tyuratam Missile And Space Complex (TTMTR). Payload-class satellites include a variety of spacecraft equipped with specific instruments for various scientific and technological missions. These include communications satellites like Starlink; space stations such as the ISS; scientific satellites like the Hubble; Earth observation satellites from companies like Planet Labs, Umbra, and HawkEye 360; GPS; miniature CubeSats for education and research; and military/defense satellites.

Loading next visibility...
Identifier
45456, 2020-020AJ
Orbit
LEO
Last TLE update
9 hours ago
Origin
Manufacturer
One Web
Mission
Operational Commercial Communications
Bus & Motor
ARROW, Unknown motor
Mass
148 kg wet, ~140 kg dry
Launch date (UTC)
2020-03-21 (5 years ago)
Launch vehicle
SOYUZ-2-1B
Launch site
Tyuratam Missile And Space Complex (TTMTR)
Object type
Payload
Rocket body
Debris
Shape & HBR
Trap Box + 2 Pan, 5 m
Radar Cross Section
2.957 m², Large (>1 m²)

Expand to show TLE details & history

TLE from 9 hours ago
0 ONEWEB-0086
1 45456U 20020AJ  25188.97703699 -.00000451  00000-0 -13095-2 0  9994
2 45456  87.8834  89.6584 0001865  90.0212 270.1129 13.11416761257498
Epoch: 2025-07-07T23:26Z
TLE epoch observation values (Epoch: 2025-07-07T23:26:55.995Z)
Latitude
-0.00011°
Longitude
171.74644°
Altitude
1,220.57 km
Speed
7.244 km/s
True Right ascension
05h 58m 38s
True Declination
0° 00' 00"
Sunlit
Object was in daylight at epoch
Visualization orbit readout
Latitude
-16.78282°
Longitude
171.03567°
Altitude
1,224.636 km
Speed
7.241 km/s
Apparent Right ascension
06h 59m 56s
Apparent Declination
-28° 36' 54"
Sunlit
Object is in daylight
Visualization observer readout
Local Sidereal Time
20:36:54
Azimuth
67.908° E
Elevation
-67.108°
Doppler factor
1
Orbital elements
Apogee altitude
1,216.218 km
Perigee altitude
1,213.386 km
Semi-major axis
7,592.939 km
Eccentricity
0.00019
Inclination
87.8834°
RAAN
89.6584°
Arg. of periapsis
90.0212°
True anomaly
Unknown
Mean anomaly
270.1129°
Eccentric anomaly
Unknown
Mean motion
3.28041 °/min
Orbital period
109.74 mins
BSTAR
-0.0013095
Loading maneuver chart data...
Loading SW <> Apogee altitude chart data...
Loading historical data...
Loading historical data...
Loading historical data...
Loading historical data...
Loading historical data...
Loading historical data...
Loading historical data...

ONEWEB-0086 Visibility forecast

Observer location: undefined°, undefined°

Span
Click to sort rows by Start time (UTC) header in descending order
Start Az.
Max El. time (UTC)
Max El. Az.
Max El.
End time (UTC)
End Az.
6 mins2025-07-08 16:06:10.261Z95.62° ESE2025-07-08 16:09:10.261Z69.371° E14.538°2025-07-08 16:12:10.261Z43.797° NE
12 mins2025-07-08 17:52:10.261Z178.578° S2025-07-08 17:58:10.261Z359.809° N44.7°2025-07-08 18:04:10.261Z0.591° NNE
6 mins2025-07-08 19:46:10.261Z266.329° W2025-07-08 19:48:10.261Z283.86° WNW14.424°2025-07-08 19:52:10.261Z318.268° NNW
13 mins2025-07-09 05:21:10.261Z4.231° NNE2025-07-09 05:27:10.261Z66.357° ENE43.646°2025-07-09 05:34:10.261Z172.665° S
8 mins2025-07-09 07:13:10.261Z318.209° NNW2025-07-09 07:16:10.261Z290.328° WNW18.314°2025-07-09 07:21:10.261Z245.79° WSW
|